#timestamp,LO_Frequency,Hit,StdDev 
1600639215.4,286046999.2,N
1600639235.2,286046999.5,N
1600639255.1,286046999.2,N
1600639256.0,286046999.2,N
1600639275.8,286047000.5,N
1600639295.6,286046998.3,N
1600639315.5,286046998.7,N
1600639335.3,286046996.8,Y
1600639355.1,286046997.8,P
1600639375.9,286046997.2,P
1600639395.7,286046999.6,N
1600639415.6,286046997.3,N
1600639435.4,286046997.1,N
1600639455.2,286046995.0,Y
1600639475.1,286047000.3,P
1600639476.0,286047000.3,N
1600639495.8,286046998.6,N
1600639515.7,286046998.5,N
1600639535.5,286047000.2,N
1600639555.3,286046998.5,N
1600639575.2,286046998.7,N
1600639595.9,286046998.8,N
1600639615.7,286047000.9,N
1600639635.6,286046998.6,N
1600639655.4,286046998.5,N
1600639675.3,286046998.8,N
1600639695.1,286046999.2,N
1600639696.0,286046999.2,N
1600639715.8,286046998.9,N
1600639735.7,286047001.2,N
1600639755.5,286046999.3,N
1600639775.3,286046999.5,N
1600639795.2,286046998.8,N
1600639815.0,286047000.6,N
1600639815.9,286047000.6,N
1600639835.8,286046998.8,N
1600639855.6,286046998.2,N
1600639875.4,286046998.2,N
1600639895.3,286047001.0,N
1600639915.1,286046999.1,N
1600639935.9,286046999.5,N
1600639955.7,286046999.2,N
1600639975.5,286046998.7,N
1600639995.4,286047001.1,N
1600640015.2,286046999.0,N
1600640035.0,286046998.7,N
1600640035.9,286046998.7,N
1600640055.8,286046999.4,N
1600640075.6,286046997.7,N
1600640095.5,286046997.0,Y
1600640115.3,286046997.4,P
1600640135.1,286046997.2,P
1600640155.9,286046998.3,N
1600640175.7,286046998.3,N
1600640195.6,286046997.5,Y
1600640215.4,286047000.4,P
1600640265.3,286047000.0,E
1600640275.2,286047000.3,N
1600640295.0,286046998.5,P
1600640295.9,286046998.5,N
1600640315.8,286046999.7,N
1600640335.6,286047002.8,Y
1600640355.4,286047001.8,P
1600640375.3,286047001.5,N
1600640395.1,286047004.4,P
1600640415.9,286047003.1,N
1600640435.7,286047003.8,N
1600640455.5,286047005.9,Y
1600640475.4,286047002.5,P
1600640495.2,286046999.9,N
1600640515.1,286047000.2,N
1600640516.0,286047000.2,N
1600640535.8,286047001.2,N
1600640555.6,286047001.1,N
1600640575.5,286046998.5,N
1600640595.3,286047000.8,N
1600640615.2,286047002.7,N
1600640635.9,286047002.4,N
1600640655.7,286047000.2,N
1600640675.6,286047002.8,N
1600640695.4,286047000.8,N
1600640715.2,286047001.1,N
1600640735.1,286047000.7,N
1600640736.0,286047000.7,N
1600640755.8,286046998.6,N
1600640775.7,286046998.9,N
1600640795.5,286047001.0,N
1600640815.3,286047000.9,N
1600640835.2,286047001.0,N
1600640855.0,286047000.0,N
1600640855.9,286047000.0,N
1600640875.8,286047000.2,N
1600640895.6,286047000.8,N
1600640915.4,286047000.9,N
1600640935.3,286046999.8,N
1600640955.1,286047000.5,N
1600640975.8,286047002.8,N
1600640995.7,286047000.9,N
1600641015.5,286047000.7,N
1600641035.4,286047000.9,N
1600641055.2,286047002.8,N
1600641075.0,286047000.1,N
1600641075.9,286047000.1,N
1600641095.8,286046999.9,N
1600641115.6,286047000.3,N
1600641135.4,286047000.5,N
1600641155.3,286047000.2,N
1600641175.1,286046999.8,N
1600641195.9,286047000.6,N
1600641215.7,286047002.5,N
1600641235.5,286047002.6,N
1600641255.4,286046999.8,N
1600641275.2,286047002.6,N
1600641295.1,286047002.1,N
1600641296.0,286047002.1,N
1600641315.8,286047002.0,N
1600641335.6,286047002.4,N
1600641355.5,286047001.9,N
1600641375.3,286047002.6,N
1600641395.1,286047000.0,N
1600641415.9,286047002.5,N
1600641435.7,286046999.8,N
1600641455.6,286047000.3,N
1600641475.4,286047000.2,N
1600641495.2,286047000.3,N
1600641515.1,286047002.7,N
1600641516.0,286047002.7,N
1600641535.8,286046998.2,N
1600641555.6,286047001.2,N
1600641575.5,286047000.5,N
1600641595.3,286047001.0,N
1600641615.2,286046999.8,N
1600641635.9,286047000.5,N
1600641655.7,286046998.1,N
1600641675.6,286046999.8,N
1600641695.4,286047002.3,N
1600641715.2,286047000.9,N
1600641735.1,286047002.8,N
1600641736.0,286047002.8,N
1600641755.8,286046998.4,N
1600641775.7,286046999.9,N
1600641795.5,286047002.5,N
1600641815.3,286046999.8,N
1600641835.2,286046998.1,N
1600641855.0,286047000.7,N
1600641855.9,286047000.7,N
1600641875.8,286046998.2,N
1600641895.6,286046999.8,N
1600641915.4,286047002.3,N
1600641935.3,286047002.5,N
1600641955.1,286047002.6,N
1600641956.0,286047002.6,N
1600641975.8,286046999.7,N
1600641995.7,286047001.9,N
1600642015.5,286047001.6,N
1600642035.3,286047002.3,N
1600642055.2,286047004.4,N
1600642075.0,286047004.2,N
1600642075.9,286047004.2,N
1600642095.8,286047003.9,N
1600642115.6,286047004.4,N
1600642135.4,286047004.1,N
1600642155.3,286047001.8,N
1600642175.1,286047002.7,N
1600642195.9,286047002.0,N
1600642215.7,286047002.6,N
1600642235.5,286047002.3,N
1600642255.4,286047002.1,N
1600642275.2,286047002.8,N
1600642295.1,286047001.6,N
1600642296.0,286047001.6,N
1600642315.8,286047003.5,N
1600642335.7,286047004.0,N
1600642355.5,286047003.5,N
1600642375.3,286047004.0,N
1600642395.2,286047002.2,N
1600642415.0,286047002.1,N
1600642415.9,286047002.1,N
1600642435.8,286047002.1,N
1600642455.6,286047004.3,Y
1600642475.4,286047001.1,P
1600642495.3,286047000.0,N
1600642515.1,286046998.1,N
1600642535.9,286047000.3,N
1600642555.7,286046998.8,N
1600642575.5,286046998.3,N
1600642595.4,286046998.2,N
1600642615.2,286046998.9,N
1600642635.1,286047000.2,N
1600642636.0,286047000.2,N
1600642655.8,286047000.3,N
1600642675.6,286046999.4,N
1600642695.5,286046999.2,N
1600642715.3,286047001.2,N
1600642735.2,286046999.7,N
1600642755.9,286046998.5,N
1600642775.7,286046998.1,N
1600642795.6,286047000.8,N
